Weather History for PAVL - February, 2014

Change the Weather History Date:

Thursday, February 27, 2014

  Actual Average Record
Temperature  
Mean Temperature 34 °F -  
Max Temperature 37 °F - - ()
Min Temperature 30 °F - - ()
Degree Days  
Heating Degree Days 32    
Moisture  
Dew Point 24 °F    
Average Humidity 67    
Maximum Humidity 75    
Minimum Humidity 59    
Precipitation  
Precipitation 0.00 in - - ()
Sea Level Pressure  
Sea Level Pressure 29.73 in    
Wind  
Wind Speed 15 mph (East)    
Max Wind Speed 22 mph    
Max Gust Speed -    
Visibility 10 miles    
Events Rain    
T = Trace of Precipitation, MM = Missing Value Source: NWS Daily Summary

Daily Weather History Graph

Daily Weather History Graph

Search for Another Location

Airport or City:

Trip Planner

Search our weather history database for the weather conditions in past years. The results will help you decide how hot, cold, wet, or windy it might be!

Date:

Astronomy

Feb. 27, 2014 Rise Set
Actual Time 9:23 AM AKST 6:59 PM AKST
Civil Twilight 8:27 AM AKST 7:55 PM AKST
Nautical Twilight 7:24 AM AKST 8:59 PM AKST
Astronomical Twilight 6:18 AM AKST 10:05 PM AKST
Moon 8:35 AM AKST (2/27) 5:19 PM AKST (2/27)
Length of Visible Light 11h 28m
Length of Day
9h 36m
Waning Crescent, 3% of the Moon is Illuminated
Feb 27
Waning Crescent
Feb 28
New
Mar 8
First Quarter
Mar 16
Full
Mar 23
Last Quarter

Hourly Weather History & Observations

Time (AKST) Temp. Windchill Dew Point Humidity Pressure Visibility Wind Dir Wind Speed Gust Speed Precip Events Conditions
1:53 AM 30.9 °F 18.4 °F 21.0 °F 67% 29.75 in 10.0 mi East 20.7 mph - N/A   Overcast
3:53 AM 33.1 °F 21.2 °F 21.9 °F 64% 29.73 in 10.0 mi ENE 20.7 mph - 0.00 in   Overcast
4:53 AM 32.0 °F 19.8 °F 23.0 °F 69% 29.72 in 10.0 mi East 20.7 mph - N/A   Overcast
6:53 AM 33.1 °F 22.6 °F 26.1 °F 75% 29.71 in 10.0 mi ENE 16.1 mph - N/A   Overcast
7:53 AM 35.1 °F 23.5 °F 24.1 °F 64% 29.70 in 10.0 mi East 21.9 mph - N/A   Overcast
8:53 AM 36.0 °F 25.6 °F 25.0 °F 64% 29.71 in 10.0 mi East 18.4 mph - 0.00 in Rain Light Rain
9:53 AM 36.0 °F 28.5 °F 24.1 °F 62% 29.71 in 10.0 mi SE 10.4 mph - 0.00 in Rain Light Rain
10:53 AM 33.1 °F 26.1 °F 25.0 °F 72% 29.73 in 10.0 mi SSE 8.1 mph - 0.00 in   Overcast
11:53 AM 34.0 °F 28.8 °F 25.0 °F 70% 29.73 in 10.0 mi East 5.8 mph - N/A   Overcast
12:53 PM 36.0 °F 27.1 °F 23.0 °F 59% 29.74 in 10.0 mi ESE 13.8 mph - N/A   Overcast
1:53 PM 35.1 °F 27.4 °F 24.1 °F 64% 29.75 in 10.0 mi East 10.4 mph - N/A   Overcast
2:53 PM 35.1 °F 27.9 °F 24.1 °F 64% 29.74 in 10.0 mi ESE 9.2 mph - N/A   Overcast
3:53 PM 36.0 °F 29.0 °F 25.0 °F 64% 29.74 in 10.0 mi SE 9.2 mph - N/A   Overcast
4:53 PM 36.0 °F 29.6 °F 24.1 °F 62% 29.74 in 10.0 mi SE 8.1 mph - N/A   Overcast
5:53 PM 37.0 °F 29.8 °F 25.0 °F 62% 29.73 in 10.0 mi East 10.4 mph - N/A   Overcast
6:53 PM 36.0 °F 28.5 °F 25.0 °F 64% 29.74 in 10.0 mi SE 10.4 mph - 0.00 in   Overcast
7:53 PM 35.1 °F 30.1 °F 25.0 °F 67% 29.74 in 10.0 mi East 5.8 mph - N/A   Overcast
8:53 PM 33.1 °F 26.9 °F 26.1 °F 75% 29.74 in 10.0 mi East 6.9 mph - N/A   Overcast
9:53 PM 34.0 °F 24.2 °F 26.1 °F 73% 29.73 in 10.0 mi East 15.0 mph - 0.00 in   Overcast
10:53 PM 34.0 °F 26.0 °F 26.1 °F 73% 29.73 in 10.0 mi East 10.4 mph - N/A   Overcast
11:53 PM 34.0 °F 24.6 °F 24.1 °F 67% 29.73 in 10.0 mi East 13.8 mph - N/A   Mostly Cloudy